Weather History for San Antonio, TX

Change the Weather History Date:

Wednesday, January 14, 2015

  Actual Average Record
Temperature  
Mean Temperature 40 °F 52 °F  
Max Temperature 41 °F 63 °F 79 °F (1980)
Min Temperature 39 °F 41 °F 15 °F (1964)
Degree Days  
Heating Degree Days 25 14  
Month to date heating degree days 306 196  
Since 1 July heating degree days 809 798  
Cooling Degree Days 0 0  
Month to date cooling degree days 0 0  
Year to date cooling degree days 0 0  
Moisture  
Dew Point 37 °F    
Average Humidity 86    
Maximum Humidity 92    
Minimum Humidity 79    
Precipitation  
Precipitation T in 0.05 in 1.49 in (2010)
Month to date precipitation 1.21 0.75  
Year to date precipitation 1.21 0.75  
Snow  
Snow 0.00 in - - ()
Month to date snowfall 0.0  
Since 1 July snowfall 0.0  
Snow Depth 0.00 in    
Sea Level Pressure  
Sea Level Pressure 30.30 in    
Wind  
Wind Speed 7 mph (NNE)    
Max Wind Speed 10 mph    
Max Gust Speed 13 mph    
Visibility 5 miles    
Events Rain    
T = Trace of Precipitation, MM = Missing Value Source: NWS Daily Summary

Daily Weather History Graph

Daily Weather History Graph

Search for Another Location

Airport:

Trip Planner

Search our weather history database for the weather conditions in past years. The results will help you decide how hot, cold, wet, or windy it might be!

Date:

Astronomy

Jan. 14, 2015 Rise Set
Actual Time 7:29 AM CST 5:56 PM CST
Civil Twilight 7:03 AM CST 6:22 PM CST
Nautical Twilight 6:34 AM CST 6:51 PM CST
Astronomical Twilight 6:05 AM CST 7:20 PM CST
Moon 1:36 AM CST (1/14) 1:01 PM CST (1/14)
Length of Visible Light 11h 18m
Length of Day
10h 26m
Last Quarter, 37% of the Moon is Illuminated
Jan 14
Last Quarter
Jan 20
New
Jan 26
First Quarter
Feb 3
Full
Feb 11
Last Quarter

Hourly Weather History & Observations

Time (CST) Temp. Windchill Dew Point Humidity Pressure Visibility Wind Dir Wind Speed Gust Speed Precip Events Conditions
12:51 AM 39.9 °F 36.7 °F 34.0 °F 79% 30.34 in 10.0 mi NE 4.6 mph - N/A   Overcast
1:51 AM 39.9 °F 34.5 °F 35.1 °F 83% 30.33 in 9.0 mi NNE 8.1 mph - N/A   Overcast
2:51 AM 39.9 °F 34.5 °F 35.1 °F 83% 30.32 in 8.0 mi North 8.1 mph - N/A   Overcast
3:51 AM 39.9 °F 35.1 °F 36.0 °F 86% 30.31 in 5.0 mi NNE 6.9 mph - 0.00 in   Light Drizzle
4:51 AM 39.9 °F 33.9 °F 35.1 °F 83% 30.32 in 8.0 mi NNE 9.2 mph - 0.00 in   Overcast
5:51 AM 39.9 °F 35.1 °F 36.0 °F 86% 30.31 in 5.0 mi North 6.9 mph - 0.00 in   Light Drizzle
6:51 AM 39.0 °F 34.8 °F 36.0 °F 89% 30.32 in 3.0 mi NNE 5.8 mph - 0.00 in   Light Drizzle
7:16 AM 39.0 °F 34.0 °F 36.0 °F 89% 30.33 in 4.0 mi NNE 6.9 mph - 0.00 in   Light Drizzle
7:31 AM 39.0 °F 34.0 °F 36.0 °F 89% 30.33 in 1.5 mi North 6.9 mph - 0.00 in   Light Drizzle
7:42 AM 39.0 °F 32.8 °F 36.0 °F 89% 30.33 in 0.8 mi NNE 9.2 mph - 0.00 in   Light Drizzle
7:46 AM 39.2 °F 33.6 °F 35.6 °F 87% 30.33 in 1.0 mi NNE 8.1 mph - 0.00 in   Light Drizzle
7:51 AM 39.0 °F 33.4 °F 36.0 °F 89% 30.31 in 1.0 mi NNE 8.1 mph - 0.00 in   Light Drizzle
8:23 AM 39.9 °F 34.5 °F 36.0 °F 86% 30.33 in 3.0 mi NNE 8.1 mph - 0.00 in   Light Drizzle
8:31 AM 39.9 °F 35.8 °F 36.0 °F 86% 30.33 in 4.0 mi NNE 5.8 mph - 0.00 in   Light Drizzle
8:51 AM 39.9 °F 35.1 °F 36.0 °F 86% 30.33 in 5.0 mi NNE 6.9 mph - 0.00 in   Light Drizzle
9:21 AM 39.9 °F 35.1 °F 36.0 °F 86% 30.34 in 6.0 mi NNE 6.9 mph - 0.00 in   Light Drizzle
9:51 AM 39.9 °F 33.9 °F 36.0 °F 86% 30.34 in 5.0 mi North 9.2 mph - 0.00 in   Light Drizzle
9:56 AM 39.9 °F 33.9 °F 36.0 °F 86% 30.36 in 2.5 mi NNE 9.2 mph - 0.00 in   Light Drizzle
10:03 AM 39.9 °F 33.4 °F 36.0 °F 86% 30.36 in 1.8 mi NNE 10.4 mph - 0.00 in   Light Drizzle
10:51 AM 39.9 °F 35.1 °F 37.9 °F 93% 30.35 in 1.5 mi NNE 6.9 mph - 0.00 in Rain Light Rain
11:51 AM 39.9 °F 35.8 °F 37.9 °F 93% 30.32 in 1.8 mi NNE 5.8 mph - 0.00 in Rain Light Rain
11:58 AM 41.0 °F 35.8 °F 37.9 °F 89% 30.33 in 2.0 mi NNE 8.1 mph - 0.00 in   Light Drizzle
12:24 PM 41.0 °F 37.1 °F 37.9 °F 89% 30.31 in 4.0 mi NE 5.8 mph - 0.00 in   Light Drizzle
12:51 PM 41.0 °F 37.1 °F 37.9 °F 89% 30.28 in 2.0 mi NE 5.8 mph - 0.00 in   Light Drizzle
1:51 PM 41.0 °F 36.4 °F 37.9 °F 89% 30.25 in 2.0 mi NNE 6.9 mph - 0.00 in   Light Drizzle
2:44 PM 41.0 °F 36.4 °F 37.9 °F 89% 30.26 in 1.5 mi NNE 6.9 mph - 0.00 in   Light Drizzle
2:51 PM 41.0 °F 37.1 °F 37.9 °F 89% 30.24 in 1.5 mi NNE 5.8 mph - 0.00 in   Light Drizzle
2:59 PM 41.0 °F 36.4 °F 39.0 °F 93% 30.25 in 2.0 mi NNE 6.9 mph - 0.00 in   Light Drizzle
3:51 PM 41.0 °F 38.0 °F 37.9 °F 89% 30.23 in 2.0 mi NNE 4.6 mph - 0.00 in   Light Drizzle
4:27 PM 41.0 °F 37.1 °F 37.9 °F 89% 30.25 in 2.0 mi North 5.8 mph - 0.00 in   Overcast
4:51 PM 41.0 °F 37.1 °F 37.9 °F 89% 30.24 in 4.0 mi NE 5.8 mph - 0.00 in   Overcast
4:57 PM 41.0 °F 36.4 °F 37.9 °F 89% 30.25 in 4.0 mi NNE 6.9 mph - 0.00 in   Light Drizzle
5:51 PM 41.0 °F 37.1 °F 37.0 °F 86% 30.25 in 6.0 mi North 5.8 mph - 0.00 in   Overcast
6:37 PM 41.0 °F 37.1 °F 37.9 °F 89% 30.27 in 7.0 mi North 5.8 mph - N/A   Overcast
6:51 PM 41.0 °F 35.8 °F 37.9 °F 89% 30.26 in 6.0 mi North 8.1 mph - 0.00 in   Light Drizzle
7:51 PM 41.0 °F 36.4 °F 37.9 °F 89% 30.27 in 8.0 mi North 6.9 mph - 0.00 in   Overcast
8:19 PM 41.0 °F 35.8 °F 37.0 °F 86% 30.28 in 10.0 mi North 8.1 mph - N/A   Overcast
8:51 PM 41.0 °F 37.1 °F 37.9 °F 89% 30.28 in 7.0 mi North 5.8 mph - 0.00 in   Light Drizzle
9:51 PM 41.0 °F 36.4 °F 37.9 °F 89% 30.28 in 9.0 mi North 6.9 mph - 0.00 in   Overcast
9:54 PM 41.0 °F 37.1 °F 37.9 °F 89% 30.29 in 10.0 mi North 5.8 mph - N/A   Overcast
10:39 PM 41.0 °F 35.8 °F 37.0 °F 86% 30.30 in 10.0 mi North 8.1 mph - 0.00 in   Light Drizzle
10:51 PM 41.0 °F 37.1 °F 37.9 °F 89% 30.29 in 10.0 mi NNW 5.8 mph - 0.00 in   Light Drizzle
11:35 PM 41.0 °F 37.1 °F 37.9 °F 89% 30.30 in 10.0 mi North 5.8 mph - 0.00 in   Light Drizzle
11:51 PM 41.0 °F 38.0 °F 37.9 °F 89% 30.28 in 10.0 mi North 4.6 mph - 0.00 in   Light Drizzle